RYR75XQ LPPR-LPFR

Flight info

Callsign RYR75XQ
Flight time 1h 5m
Altitude 31000
Route MANIK DCT INBOM DCT ALAGU
Aircraft B738/M-SDE2E3FGHIRWXY/LB1

Departure

Time 2026-05-04 20:53
Airport Francisco de Sá Carneiro Airport (LPPR)

Arrival

Time 2026-05-04 21:58
Airport Faro - Gago Coutinho International Airport (LPFR)
Time Latitude Longitude Altitude Speed Heading
2026-05-04 20:34 41.23507 -8.67288 237 ft 0 kts 114°
2026-05-04 20:45 41.23508 -8.67291 237 ft 2 kts 114°
2026-05-04 20:46 41.23514 -8.67310 237 ft 2 kts 114°
2026-05-04 20:46 41.23521 -8.67329 237 ft 3 kts 118°
2026-05-04 20:46 41.23533 -8.67350 237 ft 3 kts 140°
2026-05-04 20:46 41.23551 -8.67362 237 ft 3 kts 164°
2026-05-04 20:47 41.23571 -8.67365 237 ft 3 kts 185°
2026-05-04 20:47 41.23578 -8.67364 237 ft 0 kts 191°
2026-05-04 20:49 41.23576 -8.67364 237 ft 1 kts 191°
2026-05-04 20:49 41.23561 -8.67368 237 ft 3 kts 191°
2026-05-04 20:49 41.23531 -8.67381 237 ft 6 kts 203°
2026-05-04 20:49 41.23489 -8.67388 237 ft 7 kts 169°
2026-05-04 20:50 41.23430 -8.67372 237 ft 10 kts 169°
2026-05-04 20:50 41.23359 -8.67371 237 ft 9 kts 208°
2026-05-04 20:50 41.23333 -8.67424 237 ft 6 kts 258°
2026-05-04 20:50 41.23323 -8.67491 237 ft 9 kts 259°
2026-05-04 20:51 41.23310 -8.67578 237 ft 11 kts 259°
2026-05-04 20:51 41.23295 -8.67683 237 ft 12 kts 259°
2026-05-04 20:51 41.23312 -8.67734 237 ft 6 kts 344°
2026-05-04 20:51 41.23356 -8.67746 237 ft 7 kts 349°
2026-05-04 20:52 41.23415 -8.67761 237 ft 15 kts 349°
2026-05-04 20:52 41.23777 -8.67856 237 ft 90 kts 349°
2026-05-04 20:52 41.24599 -8.68073 241 ft 150 kts 349°
2026-05-04 20:52 41.25665 -8.68354 827 ft 160 kts 348°
2026-05-04 20:53 41.26794 -8.68650 1534 ft 169 kts 348°
2026-05-04 20:53 41.27939 -8.68953 2105 ft 170 kts 347°
2026-05-04 20:53 41.29132 -8.69246 2599 ft 176 kts 348°
2026-05-04 20:53 41.30346 -8.69545 3111 ft 182 kts 347°
2026-05-04 20:54 41.31629 -8.69862 3630 ft 189 kts 347°
2026-05-04 20:54 41.32933 -8.70199 4136 ft 196 kts 346°
2026-05-04 20:54 41.34213 -8.70865 4623 ft 201 kts 323°
2026-05-04 20:54 41.35048 -8.72354 5134 ft 207 kts 292°
2026-05-04 20:55 41.35175 -8.74313 5626 ft 222 kts 262°
2026-05-04 20:55 41.34517 -8.76204 6147 ft 238 kts 235°
2026-05-04 20:55 41.33166 -8.77586 6698 ft 254 kts 207°
2026-05-04 20:55 41.31393 -8.78051 7489 ft 267 kts 185°
2026-05-04 20:56 41.29485 -8.77897 8270 ft 283 kts 176°
2026-05-04 20:56 41.27490 -8.77514 9033 ft 302 kts 173°
2026-05-04 20:56 41.25353 -8.77002 9803 ft 320 kts 171°
2026-05-04 20:56 41.23133 -8.76424 10561 ft 336 kts 171°
2026-05-04 20:57 41.20785 -8.75796 11324 ft 350 kts 171°
2026-05-04 20:57 41.18346 -8.75137 12086 ft 363 kts 171°
2026-05-04 20:57 41.16682 -8.74696 12589 ft 371 kts 171°
2026-05-04 20:57 41.13251 -8.73793 13596 ft 384 kts 172°
2026-05-04 20:58 41.11496 -8.73327 14098 ft 390 kts 172°
2026-05-04 20:58 41.08810 -8.72604 14854 ft 397 kts 172°
2026-05-04 20:58 41.06074 -8.71858 15611 ft 402 kts 172°
2026-05-04 20:58 41.03344 -8.71124 16357 ft 406 kts 172°
2026-05-04 20:59 41.00573 -8.70378 17107 ft 409 kts 173°
2026-05-04 20:59 40.97766 -8.69611 17862 ft 411 kts 173°
2026-05-04 20:59 40.94946 -8.68832 18617 ft 412 kts 173°
2026-05-04 20:59 40.92152 -8.68069 19364 ft 416 kts 173°
2026-05-04 21:00 40.89289 -8.67292 20119 ft 421 kts 174°
2026-05-04 21:00 40.86404 -8.66503 20873 ft 424 kts 174°
2026-05-04 21:00 40.83527 -8.65706 21619 ft 427 kts 174°
2026-05-04 21:00 40.80565 -8.64877 22379 ft 440 kts 174°
2026-05-04 21:01 40.77550 -8.64028 23130 ft 452 kts 174°
2026-05-04 21:01 40.74444 -8.63113 23890 ft 463 kts 172°
2026-05-04 21:01 40.71286 -8.61993 24661 ft 471 kts 170°
2026-05-04 21:01 40.68152 -8.60745 25423 ft 476 kts 169°
2026-05-04 21:02 40.65011 -8.59390 26182 ft 479 kts 168°
2026-05-04 21:02 40.61831 -8.57953 26828 ft 483 kts 167°
2026-05-04 21:02 40.58637 -8.56470 27347 ft 486 kts 167°
2026-05-04 21:02 40.55471 -8.54992 27848 ft 486 kts 167°
2026-05-04 21:03 40.52304 -8.53515 28347 ft 484 kts 167°
2026-05-04 21:03 40.49130 -8.52028 28848 ft 482 kts 168°
2026-05-04 21:03 40.46000 -8.50551 29345 ft 479 kts 168°
2026-05-04 21:03 40.42845 -8.49075 29848 ft 477 kts 168°
2026-05-04 21:04 40.39749 -8.47632 30343 ft 475 kts 168°
2026-05-04 21:04 40.36625 -8.46175 30844 ft 474 kts 168°
2026-05-04 21:04 40.33511 -8.44724 31035 ft 479 kts 168°
2026-05-04 21:04 40.30380 -8.43270 31107 ft 479 kts 169°
2026-05-04 21:05 40.24097 -8.40418 31109 ft 475 kts 169°
2026-05-04 21:05 40.17864 -8.37617 31106 ft 473 kts 169°
2026-05-04 21:06 40.11647 -8.34867 31105 ft 471 kts 170°
2026-05-04 21:06 40.05436 -8.32210 31105 ft 469 kts 171°
2026-05-04 21:07 39.99197 -8.29728 31105 ft 467 kts 172°
2026-05-04 21:07 39.92990 -8.27338 31105 ft 467 kts 172°
2026-05-04 21:08 39.86741 -8.24951 31105 ft 467 kts 173°
2026-05-04 21:08 39.80500 -8.22577 31103 ft 467 kts 173°
2026-05-04 21:09 39.74299 -8.20223 31099 ft 466 kts 173°
2026-05-04 21:09 39.68067 -8.17863 31097 ft 466 kts 173°
2026-05-04 21:10 39.61837 -8.15518 31112 ft 466 kts 173°
2026-05-04 21:10 39.55618 -8.13187 31115 ft 467 kts 173°
2026-05-04 21:11 39.49364 -8.10851 31113 ft 467 kts 173°
2026-05-04 21:11 39.43125 -8.08526 31110 ft 468 kts 173°
2026-05-04 21:12 39.36852 -8.06202 31107 ft 468 kts 173°
2026-05-04 21:12 39.30610 -8.03903 31104 ft 468 kts 173°
2026-05-04 21:13 39.24327 -8.01598 31108 ft 469 kts 173°
2026-05-04 21:13 39.18066 -7.99319 31107 ft 469 kts 173°
2026-05-04 21:14 39.11785 -7.97050 31106 ft 469 kts 173°
2026-05-04 21:14 39.05515 -7.94796 31105 ft 468 kts 173°
2026-05-04 21:15 38.99215 -7.92543 31104 ft 469 kts 173°
2026-05-04 21:15 38.92941 -7.90314 31104 ft 469 kts 173°
2026-05-04 21:16 38.86661 -7.88093 31106 ft 470 kts 173°
2026-05-04 21:16 38.80343 -7.85871 31097 ft 470 kts 173°
2026-05-04 21:17 38.74029 -7.83667 31091 ft 471 kts 173°
2026-05-04 21:17 38.67726 -7.81475 31092 ft 471 kts 173°
2026-05-04 21:18 38.61389 -7.79279 31104 ft 472 kts 173°
2026-05-04 21:18 38.55023 -7.77091 30934 ft 475 kts 173°
2026-05-04 21:19 38.51859 -7.76009 30435 ft 479 kts 172°
2026-05-04 21:19 38.48632 -7.74887 29850 ft 480 kts 172°
2026-05-04 21:19 38.45397 -7.73753 29250 ft 479 kts 172°
2026-05-04 21:19 38.42169 -7.72622 28648 ft 479 kts 172°
2026-05-04 21:20 38.38995 -7.71516 28054 ft 478 kts 172°
2026-05-04 21:20 38.35779 -7.70406 27453 ft 478 kts 172°
2026-05-04 21:20 38.32559 -7.69307 26851 ft 478 kts 172°
2026-05-04 21:20 38.29347 -7.68224 26252 ft 478 kts 172°
2026-05-04 21:21 38.19638 -7.64967 24442 ft 480 kts 171°
2026-05-04 21:21 38.16439 -7.63885 23847 ft 481 kts 171°
2026-05-04 21:22 38.13168 -7.62961 23249 ft 477 kts 176°
2026-05-04 21:22 38.09970 -7.62433 22671 ft 452 kts 180°
2026-05-04 21:22 38.06945 -7.62122 22082 ft 420 kts 182°
2026-05-04 21:22 38.04106 -7.61946 21495 ft 395 kts 184°
2026-05-04 21:23 38.01430 -7.61839 20911 ft 375 kts 185°
2026-05-04 21:23 37.98862 -7.61763 20308 ft 361 kts 185°
2026-05-04 21:23 37.96420 -7.61704 19711 ft 349 kts 186°
2026-05-04 21:23 37.94012 -7.61654 19104 ft 338 kts 186°
2026-05-04 21:24 37.91709 -7.61613 18507 ft 330 kts 186°
2026-05-04 21:24 37.89428 -7.61577 17905 ft 323 kts 186°
2026-05-04 21:24 37.87205 -7.61543 17377 ft 314 kts 186°
2026-05-04 21:24 37.85066 -7.61511 16877 ft 307 kts 186°
2026-05-04 21:25 37.82949 -7.61484 16373 ft 300 kts 186°
2026-05-04 21:25 37.80870 -7.61464 15868 ft 294 kts 186°
2026-05-04 21:25 37.78855 -7.61454 15370 ft 290 kts 186°
2026-05-04 21:25 37.76844 -7.61451 14865 ft 286 kts 186°
2026-05-04 21:26 37.74885 -7.61456 14368 ft 283 kts 186°
2026-05-04 21:26 37.72923 -7.61455 13867 ft 280 kts 185°
2026-05-04 21:26 37.70980 -7.61443 13463 ft 274 kts 185°
2026-05-04 21:26 37.69111 -7.61427 13159 ft 268 kts 185°
2026-05-04 21:27 37.67245 -7.61414 12856 ft 267 kts 185°
2026-05-04 21:27 37.65379 -7.61406 12554 ft 267 kts 185°
2026-05-04 21:27 37.63533 -7.61405 12257 ft 267 kts 185°
2026-05-04 21:27 37.61663 -7.61410 11960 ft 267 kts 185°
2026-05-04 21:28 37.59805 -7.61421 11663 ft 266 kts 185°
2026-05-04 21:28 37.57969 -7.61426 11415 ft 265 kts 184°
2026-05-04 21:28 37.56139 -7.61428 11165 ft 264 kts 184°
2026-05-04 21:28 37.54295 -7.61438 10914 ft 264 kts 184°
2026-05-04 21:29 37.52454 -7.61443 10663 ft 263 kts 183°
2026-05-04 21:29 37.50638 -7.61443 10414 ft 263 kts 183°
2026-05-04 21:29 37.48801 -7.61451 10163 ft 262 kts 183°
2026-05-04 21:29 37.46971 -7.61463 9912 ft 262 kts 182°
2026-05-04 21:30 37.45164 -7.61466 9663 ft 261 kts 182°
2026-05-04 21:30 37.43340 -7.61472 9411 ft 260 kts 182°
2026-05-04 21:30 37.41549 -7.61477 9164 ft 260 kts 181°
2026-05-04 21:30 37.39742 -7.61623 8913 ft 258 kts 188°
2026-05-04 21:31 37.36209 -7.62334 8416 ft 257 kts 192°
2026-05-04 21:31 37.34444 -7.62732 8165 ft 256 kts 192°
2026-05-04 21:31 37.32697 -7.63128 7918 ft 256 kts 192°
2026-05-04 21:32 37.30944 -7.63527 7665 ft 255 kts 192°
2026-05-04 21:32 37.29211 -7.63921 7416 ft 254 kts 192°
2026-05-04 21:32 37.27475 -7.64311 7166 ft 253 kts 192°
2026-05-04 21:32 37.25736 -7.64698 6916 ft 252 kts 192°
2026-05-04 21:33 37.24021 -7.65079 6666 ft 251 kts 192°
2026-05-04 21:33 37.22297 -7.65461 6415 ft 250 kts 192°
2026-05-04 21:33 37.20575 -7.65838 6162 ft 250 kts 192°
2026-05-04 21:33 37.18872 -7.66209 5914 ft 249 kts 192°
2026-05-04 21:34 37.17162 -7.66583 5664 ft 248 kts 192°
2026-05-04 21:34 37.15475 -7.66951 5409 ft 247 kts 192°
2026-05-04 21:34 37.13773 -7.67316 5161 ft 246 kts 192°
2026-05-04 21:34 37.12102 -7.67670 4916 ft 245 kts 192°
2026-05-04 21:35 37.10418 -7.68025 4660 ft 244 kts 192°
2026-05-04 21:35 37.08764 -7.68369 4413 ft 242 kts 192°
2026-05-04 21:35 37.07094 -7.68708 4163 ft 242 kts 192°
2026-05-04 21:35 37.05428 -7.69043 3910 ft 241 kts 192°
2026-05-04 21:36 37.03793 -7.69366 3662 ft 240 kts 192°
2026-05-04 21:36 37.02140 -7.69687 3413 ft 237 kts 192°
2026-05-04 21:36 37.00637 -7.70220 3178 ft 217 kts 211°
2026-05-04 21:36 36.99614 -7.71460 2929 ft 196 kts 240°
2026-05-04 21:37 36.99089 -7.72959 2701 ft 181 kts 257°
2026-05-04 21:37 36.98876 -7.74437 2518 ft 168 kts 267°
2026-05-04 21:37 36.98850 -7.75821 2423 ft 142 kts 274°
2026-05-04 21:37 36.98913 -7.76986 2338 ft 134 kts 278°
2026-05-04 21:38 36.99026 -7.78150 2267 ft 135 kts 280°
2026-05-04 21:38 36.99166 -7.79314 2193 ft 134 kts 281°
2026-05-04 21:38 36.99316 -7.80467 2114 ft 133 kts 281°
2026-05-04 21:38 36.99464 -7.81590 2042 ft 132 kts 281°
2026-05-04 21:39 36.99615 -7.82722 1988 ft 131 kts 282°
2026-05-04 21:39 36.99765 -7.83846 1939 ft 131 kts 282°
2026-05-04 21:39 36.99915 -7.84964 1840 ft 132 kts 282°
2026-05-04 21:39 37.00066 -7.86099 1664 ft 130 kts 282°
2026-05-04 21:40 37.00214 -7.87204 1485 ft 129 kts 282°
2026-05-04 21:40 37.00363 -7.88317 1304 ft 129 kts 281°
2026-05-04 21:40 37.00510 -7.89421 1128 ft 128 kts 281°
2026-05-04 21:40 37.00654 -7.90508 954 ft 128 kts 281°
2026-05-04 21:41 37.00801 -7.91610 778 ft 127 kts 281°
2026-05-04 21:41 37.00947 -7.92705 603 ft 127 kts 280°
2026-05-04 21:41 37.01091 -7.93782 429 ft 127 kts 280°
2026-05-04 21:41 37.01236 -7.94877 261 ft 130 kts 279°
2026-05-04 21:42 37.01389 -7.96035 452 ft 141 kts 279°
2026-05-04 21:42 37.01560 -7.97333 854 ft 156 kts 280°
2026-05-04 21:42 37.01742 -7.98708 1227 ft 164 kts 281°
2026-05-04 21:42 37.01931 -8.00132 1611 ft 167 kts 281°
2026-05-04 21:43 37.02123 -8.01589 2090 ft 173 kts 282°
2026-05-04 21:43 37.02328 -8.03122 2617 ft 185 kts 281°
2026-05-04 21:43 37.02548 -8.04770 2954 ft 197 kts 282°
2026-05-04 21:43 37.02772 -8.06467 2995 ft 200 kts 281°
2026-05-04 21:44 37.02971 -8.08184 2982 ft 200 kts 277°
2026-05-04 21:44 37.02621 -8.09895 2988 ft 207 kts 245°
2026-05-04 21:44 37.01571 -8.11143 3001 ft 218 kts 214°
2026-05-04 21:44 37.00082 -8.11631 3021 ft 225 kts 188°
2026-05-04 21:45 36.98522 -8.11595 3015 ft 226 kts 179°
2026-05-04 21:45 36.96955 -8.11424 3000 ft 223 kts 177°
2026-05-04 21:45 36.95426 -8.11226 2998 ft 221 kts 177°
2026-05-04 21:45 36.93895 -8.11021 2998 ft 220 kts 177°
2026-05-04 21:46 36.92377 -8.10817 2998 ft 220 kts 177°
2026-05-04 21:46 36.90866 -8.10613 2999 ft 219 kts 177°
2026-05-04 21:46 36.89350 -8.10311 2980 ft 222 kts 166°
2026-05-04 21:46 36.88067 -8.09243 2996 ft 226 kts 134°
2026-05-04 21:47 36.87522 -8.08146 3002 ft 228 kts 113°
2026-05-04 21:47 36.87174 -8.05561 3024 ft 228 kts 91°
2026-05-04 21:47 36.87142 -8.04244 3008 ft 226 kts 88°
2026-05-04 21:47 36.87130 -8.01653 2998 ft 223 kts 87°
2026-05-04 21:48 36.87131 -8.00366 2998 ft 222 kts 87°
2026-05-04 21:48 36.87137 -7.97806 2999 ft 221 kts 87°
2026-05-04 21:48 36.87143 -7.96524 3000 ft 221 kts 87°
2026-05-04 21:48 36.87154 -7.94595 3001 ft 221 kts 87°
2026-05-04 21:49 36.87168 -7.92666 3000 ft 221 kts 87°
2026-05-04 21:49 36.87182 -7.90765 3000 ft 221 kts 87°
2026-05-04 21:49 36.87196 -7.88840 3000 ft 221 kts 87°
2026-05-04 21:49 36.87210 -7.86918 3000 ft 221 kts 87°
2026-05-04 21:50 36.87224 -7.84993 2999 ft 221 kts 87°
2026-05-04 21:50 36.87237 -7.83093 2999 ft 221 kts 87°
2026-05-04 21:50 36.87250 -7.81168 2999 ft 221 kts 87°
2026-05-04 21:50 36.87264 -7.79244 2999 ft 221 kts 87°
2026-05-04 21:51 36.87280 -7.77348 2998 ft 219 kts 86°
2026-05-04 21:51 36.87663 -7.75559 2975 ft 206 kts 57°
2026-05-04 21:51 36.88659 -7.74405 2997 ft 195 kts 24°
2026-05-04 21:51 36.89958 -7.74015 3031 ft 190 kts
2026-05-04 21:52 36.91258 -7.73919 3007 ft 187 kts 358°
2026-05-04 21:52 36.92548 -7.73879 2997 ft 183 kts 357°
2026-05-04 21:52 36.93814 -7.73847 3006 ft 179 kts 357°
2026-05-04 21:52 36.95050 -7.73816 2970 ft 179 kts 357°
2026-05-04 21:53 36.96300 -7.73784 2920 ft 179 kts 357°
2026-05-04 21:53 36.97501 -7.74051 2834 ft 175 kts 332°
2026-05-04 21:53 36.98323 -7.75110 2811 ft 174 kts 301°
2026-05-04 21:53 36.98772 -7.76538 2765 ft 178 kts 288°
2026-05-04 21:54 36.99036 -7.78040 2670 ft 178 kts 282°
2026-05-04 21:54 36.99231 -7.79558 2561 ft 171 kts 281°
2026-05-04 21:54 36.99399 -7.80982 2429 ft 164 kts 280°
2026-05-04 21:54 36.99571 -7.82384 2251 ft 160 kts 281°
2026-05-04 21:55 36.99747 -7.83736 2064 ft 157 kts 281°
2026-05-04 21:55 36.99924 -7.85061 1887 ft 149 kts 281°
2026-05-04 21:55 37.00091 -7.86303 1719 ft 139 kts 281°
2026-05-04 21:55 37.00245 -7.87461 1547 ft 132 kts 282°
2026-05-04 21:56 37.00396 -7.88577 1358 ft 130 kts 281°
2026-05-04 21:56 37.00546 -7.89699 1171 ft 130 kts 281°
2026-05-04 21:56 37.00695 -7.90818 972 ft 130 kts 281°
2026-05-04 21:56 37.00843 -7.91925 774 ft 130 kts 281°
2026-05-04 21:57 37.00991 -7.93032 575 ft 129 kts 280°
2026-05-04 21:57 37.01139 -7.94143 373 ft 129 kts 279°
2026-05-04 21:57 37.01283 -7.95236 182 ft 127 kts 279°
2026-05-04 21:57 37.01425 -7.96306 42 ft 120 kts 279°
2026-05-04 21:58 37.01546 -7.97212 33 ft 77 kts 279°
2026-05-04 21:58 37.01605 -7.97670 33 ft 41 kts 279°
2026-05-04 21:58 37.01653 -7.97866 33 ft 0 kts 349°
2026-05-04 21:58 37.01673 -7.97863 33 ft 9 kts 18°
2026-05-04 21:59 37.01706 -7.97833 33 ft 4 kts 41°
2026-05-04 21:59 37.01720 -7.97816 33 ft 2 kts 48°
2026-05-04 21:59 37.01733 -7.97794 33 ft 4 kts 60°
2026-05-04 21:59 37.01753 -7.97748 33 ft 7 kts 65°
2026-05-04 22:00 37.01772 -7.97675 33 ft 10 kts 79°
2026-05-04 22:00 37.01775 -7.97575 33 ft 13 kts 97°
2026-05-04 22:00 37.01759 -7.97456 33 ft 15 kts 99°
2026-05-04 22:00 37.01741 -7.97320 33 ft 7 kts 99°
2026-05-04 22:01 37.01737 -7.97290 33 ft 5 kts 99°
2026-05-04 22:01 37.01730 -7.97239 33 ft 7 kts 99°
2026-05-04 22:01 37.01720 -7.97164 33 ft 10 kts 99°
2026-05-04 22:01 37.01708 -7.97069 33 ft 12 kts 99°
2026-05-04 22:02 37.01694 -7.96957 33 ft 14 kts 90°
2026-05-04 22:02 37.01757 -7.96894 33 ft 13 kts
2026-05-04 22:02 37.01839 -7.96857 33 ft 11 kts 62°
2026-05-04 22:02 37.01836 -7.96776 33 ft 9 kts 99°
2026-05-04 22:03 37.01826 -7.96700 33 ft 8 kts 99°
2026-05-04 22:03 37.01834 -7.96636 33 ft 7 kts 45°
2026-05-04 22:03 37.01868 -7.96625 33 ft 5 kts
2026-05-04 22:03 37.01895 -7.96619 33 ft 2 kts
2026-05-04 22:04 37.01898 -7.96618 33 ft 0 kts